• In Hungary
  • List of Countries
  • For 7 days
  • Water Temperature
  • Satellite Maps
  • Weather Map
  • News
  • Weather Widgets
  • user-avatar
    Login

    Hourly Weather Ambor

    Today, 16 July, Monday

    Time Temperature Precipitation Wind Pressure Humidity
    00:00 +26°C° 0 mm 5 mps 754 mmHg 97%
    01:00 +26°C° 0.1 mm 5 mps 754 mmHg 97%
    02:00 +26°C° 0.1 mm 5 mps 754 mmHg 97%
    03:00 +26°C° 0 mm 5 mps 753 mmHg 97%
    04:00 +26°C° 0.1 mm 5 mps 753 mmHg 98%
    05:00 +26°C° 0.1 mm 5 mps 753 mmHg 98%
    06:00 +26°C° 0.1 mm 5 mps 753 mmHg 98%
    07:00 +27°C° 0.1 mm 5 mps 754 mmHg 93%
    08:00 +28°C° 0.1 mm 5 mps 754 mmHg 89%
    09:00 +29°C° 0 mm 4 mps 754 mmHg 84%
    10:00 +30°C° 0.1 mm 4 mps 754 mmHg 84%
    11:00 +30°C° 0.1 mm 4 mps 754 mmHg 83%
    12:00 +32°C° 0.1 mm 4 mps 754 mmHg 82%
    13:00 +30°C° 0.3 mm 5 mps 753 mmHg 84%
    14:00 +30°C° 0.3 mm 5 mps 753 mmHg 85%
    15:00 +30°C° 0 mm 5 mps 752 mmHg 87%
    16:00 +29°C° 0.4 mm 5 mps 752 mmHg 89%
    17:00 +29°C° 0.4 mm 5 mps 752 mmHg 91%
    18:00 +28°C° 0.4 mm 5 mps 752 mmHg 92%
    19:00 +27°C° 0.2 mm 5 mps 753 mmHg 95%
    20:00 +27°C° 0.2 mm 5 mps 753 mmHg 96%
    21:00 +26°C° 0 mm 4 mps 754 mmHg 99%
    22:00 +26°C° 0.3 mm 4 mps 754 mmHg 99%
    23:00 +27°C° 0.3 mm 4 mps 754 mmHg 98%

    Tomorrow, 17 July, Tuesday

    Time Temperature Precipitation Wind Pressure Humidity
    00:00 +27°C° 0.3 mm 4 mps 754 mmHg 97%
    01:00 +27°C° 0.3 mm 4 mps 754 mmHg 97%
    02:00 +27°C° 0.3 mm 4 mps 754 mmHg 97%
    03:00 +27°C° 0.3 mm 4 mps 753 mmHg 97%
    04:00 +27°C° 0.1 mm 4 mps 753 mmHg 97%
    05:00 +27°C° 0.1 mm 4 mps 753 mmHg 97%
    06:00 +27°C° 0.1 mm 4 mps 754 mmHg 97%
    07:00 +27°C° 0.1 mm 4 mps 754 mmHg 95%
    08:00 +27°C° 0.1 mm 4 mps 754 mmHg 93%
    09:00 +28°C° 0.1 mm 5 mps 754 mmHg 91%
    10:00 +29°C° 0.1 mm 5 mps 754 mmHg 86%
    11:00 +30°C° 0.1 mm 5 mps 754 mmHg 80%
    12:00 +33°C° 0.1 mm 5 mps 754 mmHg 75%
    13:00 +32°C° 0.1 mm 5 mps 753 mmHg 78%
    14:00 +32°C° 0.1 mm 5 mps 753 mmHg 82%
    15:00 +32°C° 0.1 mm 5 mps 752 mmHg 85%
    16:00 +30°C° 0.1 mm 5 mps 752 mmHg 88%
    17:00 +29°C° 0.1 mm 5 mps 752 mmHg 91%
    18:00 +28°C° 0.1 mm 5 mps 752 mmHg 94%
    19:00 +28°C° 0.2 mm 5 mps 753 mmHg 95%
    20:00 +27°C° 0.2 mm 5 mps 753 mmHg 96%
    21:00 +27°C° 0.2 mm 5 mps 753 mmHg 97%
    22:00 +27°C° 0.1 mm 5 mps 753 mmHg 97%
    23:00 +27°C° 0.1 mm 5 mps 754 mmHg 97%

    Day after tomorrow, 18 July, Wednesday

    Time Temperature Precipitation Wind Pressure Humidity
    00:00 +27°C° 0.1 mm 6 mps 754 mmHg 97%
    01:00 +27°C° 0.1 mm 5 mps 753 mmHg 97%
    02:00 +27°C° 0.1 mm 5 mps 753 mmHg 97%
    03:00 +27°C° 0.1 mm 5 mps 753 mmHg 97%
    04:00 +27°C° 0.2 mm 5 mps 753 mmHg 97%
    05:00 +27°C° 0.2 mm 5 mps 753 mmHg 97%
    06:00 +27°C° 0.2 mm 5 mps 753 mmHg 97%
    07:00 +27°C° 0.2 mm 5 mps 753 mmHg 97%
    08:00 +27°C° 0.2 mm 4 mps 753 mmHg 97%
    09:00 +28°C° 0.2 mm 4 mps 754 mmHg 96%
    10:00 +28°C° 0.2 mm 4 mps 754 mmHg 96%
    11:00 +28°C° 0.2 mm 4 mps 754 mmHg 95%
    12:00 +28°C° 0.2 mm 3 mps 753 mmHg 95%
    13:00 +29°C° 1.1 mm 4 mps 753 mmHg 93%
    14:00 +29°C° 1.1 mm 5 mps 752 mmHg 91%
    15:00 +30°C° 1.1 mm 6 mps 752 mmHg 88%
    16:00 +29°C° 2 mm 6 mps 752 mmHg 91%
    17:00 +29°C° 2 mm 5 mps 752 mmHg 93%
    18:00 +28°C° 2 mm 5 mps 752 mmHg 95%
    19:00 +28°C° 0.4 mm 5 mps 753 mmHg 96%
    20:00 +28°C° 0.4 mm 4 mps 753 mmHg 98%
    21:00 +28°C° 0.4 mm 4 mps 754 mmHg 99%
    22:00 +28°C° 0.1 mm 3 mps 754 mmHg 99%
    23:00 +28°C° 0.1 mm 3 mps 754 mmHg 99%

    19 July, Thursday

    Time Temperature Precipitation Wind Pressure Humidity
    00:00 +28°C° 0.1 mm 3 mps 754 mmHg 99%
    01:00 +27°C° 0.1 mm 3 mps 753 mmHg 99%
    02:00 +27°C° 0.1 mm 3 mps 753 mmHg 99%
    03:00 +27°C° 0.1 mm 3 mps 753 mmHg 99%
    04:00 +27°C° 0.5 mm 3 mps 753 mmHg 99%
    05:00 +27°C° 0.5 mm 3 mps 753 mmHg 99%
    06:00 +27°C° 0.5 mm 3 mps 753 mmHg 98%
    07:00 +28°C° 1 mm 4 mps 753 mmHg 94%
    08:00 +29°C° 1 mm 4 mps 754 mmHg 90%
    09:00 +30°C° 1 mm 4 mps 754 mmHg 86%
    10:00 +30°C° 0.3 mm 4 mps 754 mmHg 84%
    11:00 +32°C° 0.3 mm 4 mps 754 mmHg 82%
    12:00 +32°C° 0.3 mm 4 mps 754 mmHg 79%
    13:00 +32°C° 0.8 mm 4 mps 753 mmHg 82%
    14:00 +30°C° 0.8 mm 4 mps 753 mmHg 85%
    15:00 +30°C° 0.8 mm 4 mps 752 mmHg 88%
    16:00 +29°C° 1.1 mm 4 mps 752 mmHg 91%
    17:00 +29°C° 1.1 mm 4 mps 752 mmHg 93%
    18:00 +28°C° 1.1 mm 4 mps 752 mmHg 95%
    19:00 +28°C° 0.2 mm 4 mps 753 mmHg 96%
    20:00 +28°C° 0.2 mm 4 mps 753 mmHg 97%
    21:00 +28°C° 0.2 mm 4 mps 754 mmHg 98%
    22:00 +28°C° 0.1 mm 3 mps 754 mmHg 98%
    23:00 +28°C° 0.1 mm 3 mps 754 mmHg 98%

    20 July, Friday

    Time Temperature Precipitation Wind Pressure Humidity
    00:00 +27°C° 0.1 mm 3 mps 754 mmHg 99%
    01:00 +27°C° 0.3 mm 3 mps 754 mmHg 99%
    02:00 +27°C° 0.3 mm 3 mps 753 mmHg 99%
    03:00 +27°C° 0.3 mm 3 mps 753 mmHg 99%
    04:00 +27°C° 0.2 mm 4 mps 753 mmHg 99%
    05:00 +28°C° 0.2 mm 4 mps 753 mmHg 99%
    06:00 +28°C° 0.2 mm 4 mps 753 mmHg 99%
    07:00 +28°C° 0 mm 4 mps 754 mmHg 96%
    08:00 +29°C° 0 mm 4 mps 754 mmHg 94%
    09:00 +30°C° 0 mm 4 mps 755 mmHg 91%
    10:00 +32°C° 0 mm 4 mps 754 mmHg 84%
    11:00 +34°C° 0 mm 5 mps 754 mmHg 77%
    12:00 +35°C° 0 mm 5 mps 754 mmHg 70%
    13:00 +34°C° 0 mm 5 mps 753 mmHg 77%
    14:00 +32°C° 0 mm 5 mps 753 mmHg 84%
    15:00 +30°C° 0 mm 5 mps 752 mmHg 91%
    16:00 +29°C° 0.1 mm 5 mps 752 mmHg 94%
    17:00 +29°C° 0.1 mm 5 mps 752 mmHg 96%
    18:00 +29°C° 0.1 mm 5 mps 752 mmHg 98%
    19:00 +28°C° 0.2 mm 5 mps 753 mmHg 98%
    20:00 +28°C° 0.2 mm 5 mps 754 mmHg 98%
    21:00 +28°C° 0.2 mm 5 mps 754 mmHg 99%
    22:00 +28°C° 0.4 mm 5 mps 754 mmHg 99%
    23:00 +28°C° 0.4 mm 5 mps 754 mmHg 99%

    21 July, Saturday

    Time Temperature Precipitation Wind Pressure Humidity
    00:00 +28°C° 0.4 mm 5 mps 754 mmHg 99%
    01:00 +28°C° 0.3 mm 5 mps 754 mmHg 99%
    02:00 +28°C° 0.3 mm 5 mps 754 mmHg 98%
    03:00 +28°C° 0.3 mm 5 mps 753 mmHg 98%
    04:00 +27°C° 0.1 mm 5 mps 753 mmHg 98%
    05:00 +27°C° 0.1 mm 5 mps 754 mmHg 98%
    06:00 +27°C° 0.1 mm 5 mps 754 mmHg 98%
    07:00 +28°C° 0 mm 5 mps 754 mmHg 95%
    08:00 +29°C° 0 mm 5 mps 755 mmHg 91%
    09:00 +30°C° 0 mm 5 mps 755 mmHg 88%
    10:00 +32°C° 0 mm 5 mps 755 mmHg 80%
    11:00 +33°C° 0 mm 6 mps 754 mmHg 73%
    12:00 +34°C° 0 mm 6 mps 754 mmHg 65%
    13:00 +34°C° 0.1 mm 6 mps 753 mmHg 70%
    14:00 +33°C° 0.1 mm 6 mps 753 mmHg 76%
    15:00 +33°C° 0.1 mm 6 mps 752 mmHg 81%
    16:00 +32°C° 0.2 mm 6 mps 752 mmHg 85%
    17:00 +30°C° 0.2 mm 6 mps 753 mmHg 89%
    18:00 +29°C° 0.2 mm 6 mps 753 mmHg 93%
    19:00 +29°C° 0.1 mm 6 mps 753 mmHg 94%
    20:00 +28°C° 0.1 mm 6 mps 754 mmHg 96%
    21:00 +28°C° 0.1 mm 6 mps 754 mmHg 98%
    22:00 +28°C° 0.1 mm 6 mps 754 mmHg 98%
    23:00 +27°C° 0.1 mm 6 mps 754 mmHg 98%
    Show more